Tracking 20942 objects as of 14-Jul-2020
HD Live streaming from Space Station
objects crossing your sky now

COSMOS 1800

Track COSMOS 1800 now!
10-day predictions
COSMOS 1800 is classified as:


NORAD ID: 17144
Int'l Code: 1986-092G
Perigee: 1,405.6 km
Apogee: 1,479.4 km
Inclination: 74.0 °
Period: 114.6 minutes
Semi major axis: 7813 km
RCS: 0.7179 m2 (medium)
Launch date: November 21, 1986
Source: Commonwealth of Independent States (former USSR) (CIS)
Launch site: PLESETSK MISSILE AND SPACE COMPLEX (PKMTR)
aabbcc
Your satellite tracking list
Your tracking list is empty




NASA's NSSDC Master Catalog

Two Line Element Set (TLE):
1 17144U 86092G   20195.74017837 -.00000025 +00000-0 -51530-4 0  9993
2 17144 074.0144 099.5905 0047258 141.4205 282.5991 12.57002318543815
Source of the keplerian elements: AFSPC